Powrót do katalogu

DELTA 1 DEB

AktywnySSO
NORAD 12167·DEBRIS·🇺🇸 United States

Wystrzelony Mar 5, 1978 z Vandenberg Space Force Base

Loading…

Następne Przeloty (najbliższe 24 godziny)

TLE

ŚwieżeSource: Space-Track

Epoka: Sep 14, 2026, 08:03 UTC

1 12167U 78026G   26257.33607137  .00000340  00000-0  17285-3 0  9995
2 12167  98.7640 202.6614 0157268 290.5629 222.5933 14.16150605344507

Śledź DELTA 1 DEB w czasie rzeczywistym z AllMySat

Download on the App Store